Time,TemperatureF,DewpointF,PressureIn,WindDirection,WindDirectionDegrees,WindSpeedMPH,WindSpeedGustMPH,Humidity,HourlyPrecipIn,Conditions,Clouds,dailyrainin,SoftwareType,DateUTC
2013-04-22 00:01:00,49.1,32.2,30.13,North,-999,-999.0,-999.0,52,-99.99,,,-99.99,meteohub,2013-04-22 04:01:00,
2013-04-22 00:02:00,49.1,32.2,30.13,North,-999,-999.0,-999.0,52,-99.99,,,-99.99,meteohub,2013-04-22 04:02:00,
2013-04-22 00:03:00,49.1,32.2,30.13,North,-999,-999.0,-999.0,52,-99.99,,,-99.99,meteohub,2013-04-22 04:03:00,
2013-04-22 00:09:00,48.9,32.2,30.13,North,-999,-999.0,-999.0,52,-99.99,,,-99.99,meteohub,2013-04-22 04:09:00,
2013-04-22 00:14:00,48.7,32.4,30.13,North,-999,-999.0,-999.0,53,-99.99,,,-99.99,meteohub,2013-04-22 04:14:00,
2013-04-22 00:19:00,48.6,31.8,30.13,North,-999,-999.0,-999.0,52,-99.99,,,-99.99,meteohub,2013-04-22 04:19:00,
2013-04-22 00:24:00,48.4,31.6,30.13,North,-999,-999.0,-999.0,52,-99.99,,,-99.99,meteohub,2013-04-22 04:24:00,
2013-04-22 00:29:00,48.2,31.5,30.13,North,-999,-999.0,-999.0,52,-99.99,,,-99.99,meteohub,2013-04-22 04:29:00,
2013-04-22 00:34:00,48.0,31.8,30.13,North,-999,-999.0,-999.0,53,-99.99,,,-99.99,meteohub,2013-04-22 04:34:00,
2013-04-22 00:39:00,47.8,31.6,30.13,North,-999,-999.0,-999.0,53,-99.99,,,-99.99,meteohub,2013-04-22 04:39:00,
2013-04-22 00:44:00,47.7,31.5,30.13,North,-999,-999.0,-999.0,53,-99.99,,,-99.99,meteohub,2013-04-22 04:44:00,
2013-04-22 00:49:00,47.7,31.5,30.13,North,-999,-999.0,-999.0,53,-99.99,,,-99.99,meteohub,2013-04-22 04:49:00,
2013-04-22 00:55:00,47.5,31.3,30.13,North,-999,-999.0,-999.0,53,-99.99,,,-99.99,meteohub,2013-04-22 04:55:00,
2013-04-22 01:00:00,47.3,31.1,30.13,North,-999,-999.0,-999.0,53,-99.99,,,-99.99,meteohub,2013-04-22 05:00:00,
2013-04-22 01:05:00,47.1,30.9,30.13,North,-999,-999.0,-999.0,53,-99.99,,,-99.99,meteohub,2013-04-22 05:05:00,
2013-04-22 01:10:00,46.9,31.3,30.13,North,-999,-999.0,-999.0,54,-99.99,,,-99.99,meteohub,2013-04-22 05:10:00,
2013-04-22 01:15:00,46.8,30.6,30.13,North,-999,-999.0,-999.0,53,-99.99,,,-99.99,meteohub,2013-04-22 05:15:00,
2013-04-22 01:20:00,46.4,30.2,30.13,North,-999,-999.0,-999.0,53,-99.99,,,-99.99,meteohub,2013-04-22 05:20:00,
2013-04-22 01:25:00,46.4,29.8,30.13,North,-999,-999.0,-999.0,52,-99.99,,,-99.99,meteohub,2013-04-22 05:25:00,
2013-04-22 01:30:00,46.2,29.7,30.13,North,-999,-999.0,-999.0,52,-99.99,,,-99.99,meteohub,2013-04-22 05:30:00,
2013-04-22 01:35:00,46.0,29.8,30.10,North,-999,-999.0,-999.0,53,-99.99,,,-99.99,meteohub,2013-04-22 05:35:00,
2013-04-22 01:40:00,45.7,29.1,30.10,North,-999,-999.0,-999.0,52,-99.99,,,-99.99,meteohub,2013-04-22 05:40:00,
2013-04-22 01:46:00,45.5,28.9,30.10,North,-999,-999.0,-999.0,52,-99.99,,,-99.99,meteohub,2013-04-22 05:46:00,
2013-04-22 01:51:00,45.5,28.9,30.13,North,-999,-999.0,-999.0,52,-99.99,,,-99.99,meteohub,2013-04-22 05:51:00,
2013-04-22 01:56:00,45.3,28.8,30.13,North,-999,-999.0,-999.0,52,-99.99,,,-99.99,meteohub,2013-04-22 05:56:00,
2013-04-22 02:01:00,45.1,28.6,30.13,North,-999,-999.0,-999.0,52,-99.99,,,-99.99,meteohub,2013-04-22 06:01:00,
2013-04-22 02:06:00,44.8,27.9,30.13,North,-999,-999.0,-999.0,51,-99.99,,,-99.99,meteohub,2013-04-22 06:06:00,
2013-04-22 02:11:00,44.8,27.9,30.13,North,-999,-999.0,-999.0,51,-99.99,,,-99.99,meteohub,2013-04-22 06:11:00,
2013-04-22 02:16:00,44.6,27.7,30.13,North,-999,-999.0,-999.0,51,-99.99,,,-99.99,meteohub,2013-04-22 06:16:00,
2013-04-22 02:21:00,44.6,28.0,30.10,North,-999,-999.0,-999.0,52,-99.99,,,-99.99,meteohub,2013-04-22 06:21:00,
2013-04-22 02:26:00,44.2,27.3,30.10,North,-999,-999.0,-999.0,51,-99.99,,,-99.99,meteohub,2013-04-22 06:26:00,
2013-04-22 02:32:00,44.1,27.1,30.10,North,-999,-999.0,-999.0,51,-99.99,,,-99.99,meteohub,2013-04-22 06:32:00,
2013-04-22 02:37:00,44.1,27.7,30.10,North,-999,-999.0,-999.0,52,-99.99,,,-99.99,meteohub,2013-04-22 06:37:00,
2013-04-22 02:42:00,43.7,27.3,30.10,North,-999,-999.0,-999.0,52,-99.99,,,-99.99,meteohub,2013-04-22 06:42:00,
2013-04-22 02:47:00,43.7,27.3,30.10,North,-999,-999.0,-999.0,52,-99.99,,,-99.99,meteohub,2013-04-22 06:47:00,
2013-04-22 02:52:00,43.5,27.1,30.10,North,-999,-999.0,-999.0,52,-99.99,,,-99.99,meteohub,2013-04-22 06:52:00,
2013-04-22 02:57:00,43.3,27.0,30.10,North,-999,-999.0,-999.0,52,-99.99,,,-99.99,meteohub,2013-04-22 06:57:00,
2013-04-22 03:02:00,43.2,26.8,30.10,North,-999,-999.0,-999.0,52,-99.99,,,-99.99,meteohub,2013-04-22 07:02:00,
2013-04-22 03:07:00,43.0,26.6,30.07,North,-999,-999.0,-999.0,52,-99.99,,,-99.99,meteohub,2013-04-22 07:07:00,
2013-04-22 03:12:00,42.8,26.4,30.07,North,-999,-999.0,-999.0,52,-99.99,,,-99.99,meteohub,2013-04-22 07:12:00,
2013-04-22 03:17:00,42.8,26.4,30.07,North,-999,-999.0,-999.0,52,-99.99,,,-99.99,meteohub,2013-04-22 07:17:00,
2013-04-22 03:22:00,42.6,26.8,30.07,North,-999,-999.0,-999.0,53,-99.99,,,-99.99,meteohub,2013-04-22 07:22:00,
2013-04-22 03:27:00,42.6,26.8,30.07,North,-999,-999.0,-999.0,53,-99.99,,,-99.99,meteohub,2013-04-22 07:27:00,
2013-04-22 03:32:00,42.4,27.0,30.07,North,-999,-999.0,-999.0,54,-99.99,,,-99.99,meteohub,2013-04-22 07:32:00,
2013-04-22 03:37:00,42.3,26.8,30.07,North,-999,-999.0,-999.0,54,-99.99,,,-99.99,meteohub,2013-04-22 07:37:00,
2013-04-22 03:42:00,42.1,27.1,30.07,North,-999,-999.0,-999.0,55,-99.99,,,-99.99,meteohub,2013-04-22 07:42:00,
2013-04-22 03:47:00,42.1,27.1,30.07,North,-999,-999.0,-999.0,55,-99.99,,,-99.99,meteohub,2013-04-22 07:47:00,
2013-04-22 03:52:00,41.9,27.0,30.07,North,-999,-999.0,-999.0,55,-99.99,,,-99.99,meteohub,2013-04-22 07:52:00,
2013-04-22 03:57:00,41.7,27.1,30.07,North,-999,-999.0,-999.0,56,-99.99,,,-99.99,meteohub,2013-04-22 07:57:00,
2013-04-22 04:02:00,41.7,27.1,30.07,North,-999,-999.0,-999.0,56,-99.99,,,-99.99,meteohub,2013-04-22 08:02:00,
2013-04-22 04:07:00,41.5,27.5,30.07,North,-999,-999.0,-999.0,57,-99.99,,,-99.99,meteohub,2013-04-22 08:07:00,
2013-04-22 04:12:00,41.5,27.5,30.07,North,-999,-999.0,-999.0,57,-99.99,,,-99.99,meteohub,2013-04-22 08:12:00,
2013-04-22 04:17:00,41.4,27.3,30.07,North,-999,-999.0,-999.0,57,-99.99,,,-99.99,meteohub,2013-04-22 08:17:00,
2013-04-22 04:22:00,41.4,27.7,30.04,North,-999,-999.0,-999.0,58,-99.99,,,-99.99,meteohub,2013-04-22 08:22:00,
2013-04-22 04:27:00,41.2,27.5,30.04,North,-999,-999.0,-999.0,58,-99.99,,,-99.99,meteohub,2013-04-22 08:27:00,
2013-04-22 04:32:00,41.2,28.0,30.04,North,-999,-999.0,-999.0,59,-99.99,,,-99.99,meteohub,2013-04-22 08:32:00,
2013-04-22 04:37:00,41.2,28.4,30.04,North,-999,-999.0,-999.0,60,-99.99,,,-99.99,meteohub,2013-04-22 08:37:00,
2013-04-22 04:42:00,41.2,28.8,30.04,North,-999,-999.0,-999.0,61,-99.99,,,-99.99,meteohub,2013-04-22 08:42:00,
2013-04-22 04:47:00,41.0,28.6,30.04,North,-999,-999.0,-999.0,61,-99.99,,,-99.99,meteohub,2013-04-22 08:47:00,
2013-04-22 04:52:00,40.8,28.8,30.07,North,-999,-999.0,-999.0,62,-99.99,,,-99.99,meteohub,2013-04-22 08:52:00,
2013-04-22 04:57:00,40.8,29.3,30.07,North,-999,-999.0,-999.0,63,-99.99,,,-99.99,meteohub,2013-04-22 08:57:00,
2013-04-22 05:02:00,40.8,29.3,30.07,North,-999,-999.0,-999.0,63,-99.99,,,-99.99,meteohub,2013-04-22 09:02:00,
2013-04-22 05:07:00,40.6,29.1,30.07,North,-999,-999.0,-999.0,63,-99.99,,,-99.99,meteohub,2013-04-22 09:07:00,
2013-04-22 05:12:00,40.6,29.1,30.07,North,-999,-999.0,-999.0,63,-99.99,,,-99.99,meteohub,2013-04-22 09:12:00,
2013-04-22 05:17:00,40.6,29.5,30.07,North,-999,-999.0,-999.0,64,-99.99,,,-99.99,meteohub,2013-04-22 09:17:00,
2013-04-22 05:22:00,40.6,29.5,30.07,North,-999,-999.0,-999.0,64,-99.99,,,-99.99,meteohub,2013-04-22 09:22:00,
2013-04-22 05:27:00,40.5,29.7,30.07,North,-999,-999.0,-999.0,65,-99.99,,,-99.99,meteohub,2013-04-22 09:27:00,
2013-04-22 05:32:00,40.5,29.7,30.07,North,-999,-999.0,-999.0,65,-99.99,,,-99.99,meteohub,2013-04-22 09:32:00,
2013-04-22 05:37:00,40.3,29.8,30.07,North,-999,-999.0,-999.0,66,-99.99,,,-99.99,meteohub,2013-04-22 09:37:00,
2013-04-22 05:42:00,40.3,30.2,30.07,North,-999,-999.0,-999.0,67,-99.99,,,-99.99,meteohub,2013-04-22 09:42:00,
2013-04-22 05:47:00,40.1,29.7,30.07,North,-999,-999.0,-999.0,66,-99.99,,,-99.99,meteohub,2013-04-22 09:47:00,
2013-04-22 05:52:00,40.1,30.0,30.07,North,-999,-999.0,-999.0,67,-99.99,,,-99.99,meteohub,2013-04-22 09:52:00,
2013-04-22 05:57:00,40.1,30.4,30.07,North,-999,-999.0,-999.0,68,-99.99,,,-99.99,meteohub,2013-04-22 09:57:00,
2013-04-22 06:02:00,39.9,29.8,30.07,North,-999,-999.0,-999.0,67,-99.99,,,-99.99,meteohub,2013-04-22 10:02:00,
2013-04-22 06:07:00,39.9,30.2,30.07,North,-999,-999.0,-999.0,68,-99.99,,,-99.99,meteohub,2013-04-22 10:07:00,
2013-04-22 06:12:00,39.9,30.2,30.07,North,-999,-999.0,-999.0,68,-99.99,,,-99.99,meteohub,2013-04-22 10:12:00,
2013-04-22 06:17:00,39.7,30.4,30.07,North,-999,-999.0,-999.0,69,-99.99,,,-99.99,meteohub,2013-04-22 10:17:00,
2013-04-22 06:22:00,39.6,30.2,30.07,North,-999,-999.0,-999.0,69,-99.99,,,-99.99,meteohub,2013-04-22 10:22:00,
2013-04-22 06:27:00,39.6,30.2,30.07,North,-999,-999.0,-999.0,69,-99.99,,,-99.99,meteohub,2013-04-22 10:27:00,
2013-04-22 06:32:00,39.6,30.2,30.07,North,-999,-999.0,-999.0,69,-99.99,,,-99.99,meteohub,2013-04-22 10:32:00,
2013-04-22 06:37:00,39.6,30.6,30.04,North,-999,-999.0,-999.0,70,-99.99,,,-99.99,meteohub,2013-04-22 10:37:00,
2013-04-22 06:42:00,39.6,30.6,30.04,North,-999,-999.0,-999.0,70,-99.99,,,-99.99,meteohub,2013-04-22 10:42:00,
2013-04-22 06:47:00,39.6,30.6,30.04,North,-999,-999.0,-999.0,70,-99.99,,,-99.99,meteohub,2013-04-22 10:47:00,
2013-04-22 06:52:00,39.6,30.6,30.07,North,-999,-999.0,-999.0,70,-99.99,,,-99.99,meteohub,2013-04-22 10:52:00,
2013-04-22 06:57:00,39.6,30.6,30.07,North,-999,-999.0,-999.0,70,-99.99,,,-99.99,meteohub,2013-04-22 10:57:00,
2013-04-22 07:02:00,39.6,30.9,30.07,North,-999,-999.0,-999.0,71,-99.99,,,-99.99,meteohub,2013-04-22 11:02:00,
2013-04-22 07:07:00,39.6,30.9,30.07,North,-999,-999.0,-999.0,71,-99.99,,,-99.99,meteohub,2013-04-22 11:07:00,
2013-04-22 07:12:00,39.6,30.9,30.07,North,-999,-999.0,-999.0,71,-99.99,,,-99.99,meteohub,2013-04-22 11:12:00,
2013-04-22 07:17:00,39.7,31.5,30.07,North,-999,-999.0,-999.0,72,-99.99,,,-99.99,meteohub,2013-04-22 11:17:00,
2013-04-22 07:22:00,39.9,31.6,30.07,North,-999,-999.0,-999.0,72,-99.99,,,-99.99,meteohub,2013-04-22 11:22:00,
2013-04-22 07:27:00,40.1,31.8,30.07,North,-999,-999.0,-999.0,72,-99.99,,,-99.99,meteohub,2013-04-22 11:27:00,
2013-04-22 07:32:00,40.3,32.0,30.07,North,-999,-999.0,-999.0,72,-99.99,,,-99.99,meteohub,2013-04-22 11:32:00,
2013-04-22 07:37:00,40.5,32.2,30.07,North,-999,-999.0,-999.0,72,-99.99,,,-99.99,meteohub,2013-04-22 11:37:00,
2013-04-22 07:42:00,40.6,32.0,30.07,North,-999,-999.0,-999.0,71,-99.99,,,-99.99,meteohub,2013-04-22 11:42:00,
2013-04-22 07:47:00,40.6,32.4,30.07,North,-999,-999.0,-999.0,72,-99.99,,,-99.99,meteohub,2013-04-22 11:47:00,
2013-04-22 07:52:00,40.6,32.4,30.04,North,-999,-999.0,-999.0,72,-99.99,,,-99.99,meteohub,2013-04-22 11:52:00,
2013-04-22 07:57:00,40.8,32.5,30.04,North,-999,-999.0,-999.0,72,-99.99,,,-99.99,meteohub,2013-04-22 11:57:00,
2013-04-22 08:02:00,41.2,32.9,30.04,North,-999,-999.0,-999.0,72,-99.99,,,-99.99,meteohub,2013-04-22 12:02:00,
2013-04-22 08:07:00,42.1,33.8,30.04,North,-999,-999.0,-999.0,72,-99.99,,,-99.99,meteohub,2013-04-22 12:07:00,
2013-04-22 08:12:00,41.9,33.3,30.04,North,-999,-999.0,-999.0,71,-99.99,,,-99.99,meteohub,2013-04-22 12:12:00,
2013-04-22 08:17:00,42.1,33.4,30.04,North,-999,-999.0,-999.0,71,-99.99,,,-99.99,meteohub,2013-04-22 12:17:00,
2013-04-22 08:22:00,42.3,33.3,30.07,North,-999,-999.0,-999.0,70,-99.99,,,-99.99,meteohub,2013-04-22 12:22:00,
2013-04-22 08:27:00,42.6,33.6,30.07,North,-999,-999.0,-999.0,70,-99.99,,,-99.99,meteohub,2013-04-22 12:27:00,
2013-04-22 08:32:00,42.8,33.4,30.07,North,-999,-999.0,-999.0,69,-99.99,,,-99.99,meteohub,2013-04-22 12:32:00,
2013-04-22 08:37:00,43.3,33.1,30.07,North,-999,-999.0,-999.0,67,-99.99,,,-99.99,meteohub,2013-04-22 12:37:00,
2013-04-22 08:42:00,43.5,33.3,30.07,North,-999,-999.0,-999.0,67,-99.99,,,-99.99,meteohub,2013-04-22 12:42:00,
2013-04-22 08:47:00,44.1,33.4,30.07,North,-999,-999.0,-999.0,66,-99.99,,,-99.99,meteohub,2013-04-22 12:47:00,
2013-04-22 08:52:00,44.2,33.3,30.07,North,-999,-999.0,-999.0,65,-99.99,,,-99.99,meteohub,2013-04-22 12:52:00,
2013-04-22 08:57:00,44.4,33.4,30.07,North,-999,-999.0,-999.0,65,-99.99,,,-99.99,meteohub,2013-04-22 12:57:00,
2013-04-22 09:02:00,44.6,33.3,30.07,North,-999,-999.0,-999.0,64,-99.99,,,-99.99,meteohub,2013-04-22 13:02:00,
2013-04-22 09:07:00,44.8,33.4,30.07,North,-999,-999.0,-999.0,64,-99.99,,,-99.99,meteohub,2013-04-22 13:07:00,
2013-04-22 09:12:00,45.1,33.8,30.07,North,-999,-999.0,-999.0,64,-99.99,,,-99.99,meteohub,2013-04-22 13:12:00,
2013-04-22 09:17:00,45.5,33.6,30.07,North,-999,-999.0,-999.0,63,-99.99,,,-99.99,meteohub,2013-04-22 13:17:00,
2013-04-22 09:22:00,45.9,34.0,30.07,North,-999,-999.0,-999.0,63,-99.99,,,-99.99,meteohub,2013-04-22 13:22:00,
2013-04-22 09:27:00,46.2,34.3,30.07,North,-999,-999.0,-999.0,63,-99.99,,,-99.99,meteohub,2013-04-22 13:27:00,
2013-04-22 09:32:00,46.4,33.8,30.07,North,-999,-999.0,-999.0,61,-99.99,,,-99.99,meteohub,2013-04-22 13:32:00,
2013-04-22 09:37:00,46.8,34.0,30.04,North,-999,-999.0,-999.0,61,-99.99,,,-99.99,meteohub,2013-04-22 13:37:00,
2013-04-22 09:42:00,47.1,34.9,30.04,North,-999,-999.0,-999.0,62,-99.99,,,-99.99,meteohub,2013-04-22 13:42:00,
2013-04-22 09:47:00,47.3,34.5,30.04,North,-999,-999.0,-999.0,61,-99.99,,,-99.99,meteohub,2013-04-22 13:47:00,
2013-04-22 09:52:00,47.7,34.9,30.04,North,-999,-999.0,-999.0,61,-99.99,,,-99.99,meteohub,2013-04-22 13:52:00,
2013-04-22 09:57:00,48.0,35.2,30.04,North,-999,-999.0,-999.0,61,-99.99,,,-99.99,meteohub,2013-04-22 13:57:00,
2013-04-22 10:02:00,48.4,35.2,30.04,North,-999,-999.0,-999.0,60,-99.99,,,-99.99,meteohub,2013-04-22 14:02:00,
2013-04-22 10:07:00,48.6,34.9,30.04,North,-999,-999.0,-999.0,59,-99.99,,,-99.99,meteohub,2013-04-22 14:07:00,
2013-04-22 10:12:00,48.7,35.1,30.04,North,-999,-999.0,-999.0,59,-99.99,,,-99.99,meteohub,2013-04-22 14:12:00,
2013-04-22 10:17:00,49.3,36.0,30.04,North,-999,-999.0,-999.0,60,-99.99,,,-99.99,meteohub,2013-04-22 14:17:00,
2013-04-22 10:22:00,49.6,36.0,30.04,North,-999,-999.0,-999.0,59,-99.99,,,-99.99,meteohub,2013-04-22 14:22:00,
2013-04-22 10:27:00,49.8,36.1,30.04,North,-999,-999.0,-999.0,59,-99.99,,,-99.99,meteohub,2013-04-22 14:27:00,
2013-04-22 10:32:00,50.2,36.0,30.04,North,-999,-999.0,-999.0,58,-99.99,,,-99.99,meteohub,2013-04-22 14:32:00,
2013-04-22 10:37:00,50.4,35.8,30.04,North,-999,-999.0,-999.0,57,-99.99,,,-99.99,meteohub,2013-04-22 14:37:00,
2013-04-22 10:42:00,50.7,35.6,30.04,North,-999,-999.0,-999.0,56,-99.99,,,-99.99,meteohub,2013-04-22 14:42:00,
2013-04-22 10:47:00,50.9,34.9,30.04,North,-999,-999.0,-999.0,54,-99.99,,,-99.99,meteohub,2013-04-22 14:47:00,
2013-04-22 10:52:00,51.4,36.3,30.04,North,-999,-999.0,-999.0,56,-99.99,,,-99.99,meteohub,2013-04-22 14:52:00,
2013-04-22 10:57:00,51.8,36.1,30.04,North,-999,-999.0,-999.0,55,-99.99,,,-99.99,meteohub,2013-04-22 14:57:00,
2013-04-22 11:02:00,52.2,36.0,30.04,North,-999,-999.0,-999.0,54,-99.99,,,-99.99,meteohub,2013-04-22 15:02:00,
2013-04-22 11:07:00,52.5,36.9,30.04,North,-999,-999.0,-999.0,55,-99.99,,,-99.99,meteohub,2013-04-22 15:07:00,
2013-04-22 11:12:00,52.5,36.0,30.04,North,-999,-999.0,-999.0,53,-99.99,,,-99.99,meteohub,2013-04-22 15:12:00,
2013-04-22 11:17:00,53.1,36.5,30.04,North,-999,-999.0,-999.0,53,-99.99,,,-99.99,meteohub,2013-04-22 15:17:00,
2013-04-22 11:22:00,53.2,37.0,30.04,North,-999,-999.0,-999.0,54,-99.99,,,-99.99,meteohub,2013-04-22 15:22:00,
2013-04-22 11:27:00,53.8,37.0,30.04,North,-999,-999.0,-999.0,53,-99.99,,,-99.99,meteohub,2013-04-22 15:27:00,
2013-04-22 11:32:00,54.3,37.6,30.04,North,-999,-999.0,-999.0,53,-99.99,,,-99.99,meteohub,2013-04-22 15:32:00,
2013-04-22 11:37:00,54.5,36.9,30.04,North,-999,-999.0,-999.0,51,-99.99,,,-99.99,meteohub,2013-04-22 15:37:00,
2013-04-22 11:42:00,55.2,37.9,30.04,North,-999,-999.0,-999.0,52,-99.99,,,-99.99,meteohub,2013-04-22 15:42:00,
2013-04-22 11:47:00,55.8,36.9,30.04,North,-999,-999.0,-999.0,49,-99.99,,,-99.99,meteohub,2013-04-22 15:47:00,
2013-04-22 11:52:00,56.5,38.1,30.04,North,-999,-999.0,-999.0,50,-99.99,,,-99.99,meteohub,2013-04-22 15:52:00,
2013-04-22 11:57:00,57.2,38.3,30.04,North,-999,-999.0,-999.0,49,-99.99,,,-99.99,meteohub,2013-04-22 15:57:00,
2013-04-22 12:02:00,57.2,37.8,30.04,North,-999,-999.0,-999.0,48,-99.99,,,-99.99,meteohub,2013-04-22 16:02:00,
2013-04-22 12:07:00,58.1,39.0,30.04,North,-999,-999.0,-999.0,49,-99.99,,,-99.99,meteohub,2013-04-22 16:07:00,
2013-04-22 12:12:00,59.0,39.4,30.04,North,-999,-999.0,-999.0,48,-99.99,,,-99.99,meteohub,2013-04-22 16:12:00,
2013-04-22 12:17:00,59.2,38.5,30.04,North,-999,-999.0,-999.0,46,-99.99,,,-99.99,meteohub,2013-04-22 16:17:00,
2013-04-22 12:22:00,58.8,37.6,30.01,North,-999,-999.0,-999.0,45,-99.99,,,-99.99,meteohub,2013-04-22 16:22:00,
2013-04-22 12:27:00,59.4,38.1,30.01,North,-999,-999.0,-999.0,45,-99.99,,,-99.99,meteohub,2013-04-22 16:27:00,
2013-04-22 12:32:00,59.5,38.3,30.01,North,-999,-999.0,-999.0,45,-99.99,,,-99.99,meteohub,2013-04-22 16:32:00,
2013-04-22 12:37:00,59.5,38.3,30.01,North,-999,-999.0,-999.0,45,-99.99,,,-99.99,meteohub,2013-04-22 16:37:00,
2013-04-22 12:42:00,60.4,39.0,30.01,North,-999,-999.0,-999.0,45,-99.99,,,-99.99,meteohub,2013-04-22 16:42:00,
2013-04-22 12:47:00,60.1,37.6,30.01,North,-999,-999.0,-999.0,43,-99.99,,,-99.99,meteohub,2013-04-22 16:47:00,
2013-04-22 12:52:00,60.3,37.0,30.01,North,-999,-999.0,-999.0,42,-99.99,,,-99.99,meteohub,2013-04-22 16:52:00,
2013-04-22 12:57:00,60.6,36.9,30.01,North,-999,-999.0,-999.0,41,-99.99,,,-99.99,meteohub,2013-04-22 16:57:00,
2013-04-22 13:02:00,60.4,37.2,30.01,North,-999,-999.0,-999.0,42,-99.99,,,-99.99,meteohub,2013-04-22 17:02:00,
2013-04-22 13:07:00,60.6,36.1,29.99,North,-999,-999.0,-999.0,40,-99.99,,,-99.99,meteohub,2013-04-22 17:07:00,
2013-04-22 13:12:00,61.3,36.9,29.99,North,-999,-999.0,-999.0,40,-99.99,,,-99.99,meteohub,2013-04-22 17:12:00,
2013-04-22 13:17:00,61.3,36.1,29.99,North,-999,-999.0,-999.0,39,-99.99,,,-99.99,meteohub,2013-04-22 17:17:00,
2013-04-22 13:22:00,61.5,36.3,29.99,North,-999,-999.0,-999.0,39,-99.99,,,-99.99,meteohub,2013-04-22 17:22:00,
2013-04-22 13:27:00,61.7,37.8,29.99,North,-999,-999.0,-999.0,41,-99.99,,,-99.99,meteohub,2013-04-22 17:27:00,
2013-04-22 13:32:00,61.7,37.2,29.99,North,-999,-999.0,-999.0,40,-99.99,,,-99.99,meteohub,2013-04-22 17:32:00,
2013-04-22 13:37:00,61.9,37.4,29.99,North,-999,-999.0,-999.0,40,-99.99,,,-99.99,meteohub,2013-04-22 17:37:00,
2013-04-22 13:42:00,62.4,37.8,29.99,North,-999,-999.0,-999.0,40,-99.99,,,-99.99,meteohub,2013-04-22 17:42:00,
2013-04-22 13:47:00,62.4,37.8,29.99,North,-999,-999.0,-999.0,40,-99.99,,,-99.99,meteohub,2013-04-22 17:47:00,
2013-04-22 13:52:00,62.8,38.1,29.99,North,-999,-999.0,-999.0,40,-99.99,,,-99.99,meteohub,2013-04-22 17:52:00,
2013-04-22 13:57:00,63.0,37.6,29.99,North,-999,-999.0,-999.0,39,-99.99,,,-99.99,meteohub,2013-04-22 17:57:00,
2013-04-22 14:02:00,63.1,37.8,29.99,North,-999,-999.0,-999.0,39,-99.99,,,-99.99,meteohub,2013-04-22 18:02:00,
2013-04-22 14:07:00,63.5,38.8,29.99,North,-999,-999.0,-999.0,40,-99.99,,,-99.99,meteohub,2013-04-22 18:07:00,
2013-04-22 14:12:00,63.5,37.4,29.99,North,-999,-999.0,-999.0,38,-99.99,,,-99.99,meteohub,2013-04-22 18:12:00,
2013-04-22 14:17:00,63.9,38.5,29.99,North,-999,-999.0,-999.0,39,-99.99,,,-99.99,meteohub,2013-04-22 18:17:00,
2013-04-22 14:22:00,63.0,37.0,29.99,North,-999,-999.0,-999.0,38,-99.99,,,-99.99,meteohub,2013-04-22 18:22:00,
2013-04-22 14:27:00,63.0,36.3,29.99,North,-999,-999.0,-999.0,37,-99.99,,,-99.99,meteohub,2013-04-22 18:27:00,
2013-04-22 14:32:00,63.5,37.4,29.99,North,-999,-999.0,-999.0,38,-99.99,,,-99.99,meteohub,2013-04-22 18:32:00,
2013-04-22 14:37:00,63.5,37.4,29.96,North,-999,-999.0,-999.0,38,-99.99,,,-99.99,meteohub,2013-04-22 18:37:00,
2013-04-22 14:42:00,64.0,37.2,29.96,North,-999,-999.0,-999.0,37,-99.99,,,-99.99,meteohub,2013-04-22 18:42:00,
2013-04-22 14:47:00,64.4,37.6,29.96,North,-999,-999.0,-999.0,37,-99.99,,,-99.99,meteohub,2013-04-22 18:47:00,
2013-04-22 14:52:00,63.7,37.0,29.96,North,-999,-999.0,-999.0,37,-99.99,,,-99.99,meteohub,2013-04-22 18:52:00,
2013-04-22 14:57:00,63.9,37.0,29.96,North,-999,-999.0,-999.0,37,-99.99,,,-99.99,meteohub,2013-04-22 18:57:00,
2013-04-22 15:02:00,63.9,37.8,29.96,North,-999,-999.0,-999.0,38,-99.99,,,-99.99,meteohub,2013-04-22 19:02:00,
2013-04-22 15:07:00,64.4,38.3,29.96,North,-999,-999.0,-999.0,38,-99.99,,,-99.99,meteohub,2013-04-22 19:07:00,
2013-04-22 15:12:00,64.4,37.6,29.96,North,-999,-999.0,-999.0,37,-99.99,,,-99.99,meteohub,2013-04-22 19:12:00,
2013-04-22 15:17:00,63.7,35.6,29.96,North,-999,-999.0,-999.0,35,-99.99,,,-99.99,meteohub,2013-04-22 19:17:00,
2013-04-22 15:22:00,63.1,34.3,29.96,North,-999,-999.0,-999.0,34,-99.99,,,-99.99,meteohub,2013-04-22 19:22:00,
2013-04-22 15:27:00,62.6,35.2,29.96,North,-999,-999.0,-999.0,36,-99.99,,,-99.99,meteohub,2013-04-22 19:27:00,
2013-04-22 15:32:00,62.6,35.2,29.96,North,-999,-999.0,-999.0,36,-99.99,,,-99.99,meteohub,2013-04-22 19:32:00,
2013-04-22 15:37:00,62.4,35.8,29.96,North,-999,-999.0,-999.0,37,-99.99,,,-99.99,meteohub,2013-04-22 19:37:00,
2013-04-22 15:42:00,62.4,35.8,29.96,North,-999,-999.0,-999.0,37,-99.99,,,-99.99,meteohub,2013-04-22 19:42:00,
2013-04-22 15:47:00,62.8,36.1,29.96,North,-999,-999.0,-999.0,37,-99.99,,,-99.99,meteohub,2013-04-22 19:47:00,
2013-04-22 15:52:00,62.8,36.1,29.93,North,-999,-999.0,-999.0,37,-99.99,,,-99.99,meteohub,2013-04-22 19:52:00,
2013-04-22 15:57:00,63.0,36.3,29.93,North,-999,-999.0,-999.0,37,-99.99,,,-99.99,meteohub,2013-04-22 19:57:00,
2013-04-22 16:02:00,62.6,35.2,29.93,North,-999,-999.0,-999.0,36,-99.99,,,-99.99,meteohub,2013-04-22 20:02:00,
2013-04-22 16:07:00,62.2,35.6,29.93,North,-999,-999.0,-999.0,37,-99.99,,,-99.99,meteohub,2013-04-22 20:07:00,
2013-04-22 16:12:00,62.6,36.0,29.93,North,-999,-999.0,-999.0,37,-99.99,,,-99.99,meteohub,2013-04-22 20:12:00,
2013-04-22 16:17:00,62.8,36.9,29.93,North,-999,-999.0,-999.0,38,-99.99,,,-99.99,meteohub,2013-04-22 20:17:00,
2013-04-22 16:22:00,62.8,36.9,29.93,North,-999,-999.0,-999.0,38,-99.99,,,-99.99,meteohub,2013-04-22 20:22:00,
2013-04-22 16:27:00,62.4,36.5,29.93,North,-999,-999.0,-999.0,38,-99.99,,,-99.99,meteohub,2013-04-22 20:27:00,
2013-04-22 16:32:00,62.1,35.6,29.93,North,-999,-999.0,-999.0,37,-99.99,,,-99.99,meteohub,2013-04-22 20:32:00,
2013-04-22 16:37:00,62.1,36.1,29.93,North,-999,-999.0,-999.0,38,-99.99,,,-99.99,meteohub,2013-04-22 20:37:00,
2013-04-22 16:42:00,62.1,36.1,29.93,North,-999,-999.0,-999.0,38,-99.99,,,-99.99,meteohub,2013-04-22 20:42:00,
2013-04-22 16:47:00,62.1,36.1,29.93,North,-999,-999.0,-999.0,38,-99.99,,,-99.99,meteohub,2013-04-22 20:47:00,
2013-04-22 16:52:00,62.1,36.1,29.93,North,-999,-999.0,-999.0,38,-99.99,,,-99.99,meteohub,2013-04-22 20:52:00,
2013-04-22 16:57:00,61.5,36.3,29.93,North,-999,-999.0,-999.0,39,-99.99,,,-99.99,meteohub,2013-04-22 20:57:00,
2013-04-22 17:02:00,61.3,36.1,29.93,North,-999,-999.0,-999.0,39,-99.99,,,-99.99,meteohub,2013-04-22 21:02:00,
2013-04-22 17:07:00,61.2,36.0,29.93,North,-999,-999.0,-999.0,39,-99.99,,,-99.99,meteohub,2013-04-22 21:07:00,
2013-04-22 17:12:00,60.8,35.8,29.93,North,-999,-999.0,-999.0,39,-99.99,,,-99.99,meteohub,2013-04-22 21:12:00,
2013-04-22 17:17:00,60.4,35.4,29.93,North,-999,-999.0,-999.0,39,-99.99,,,-99.99,meteohub,2013-04-22 21:17:00,
2013-04-22 17:22:00,60.4,36.0,29.93,North,-999,-999.0,-999.0,40,-99.99,,,-99.99,meteohub,2013-04-22 21:22:00,
2013-04-22 17:27:00,60.4,36.0,29.93,North,-999,-999.0,-999.0,40,-99.99,,,-99.99,meteohub,2013-04-22 21:27:00,
2013-04-22 17:32:00,60.3,36.0,29.93,North,-999,-999.0,-999.0,40,-99.99,,,-99.99,meteohub,2013-04-22 21:32:00,
2013-04-22 17:37:00,60.1,35.8,29.93,North,-999,-999.0,-999.0,40,-99.99,,,-99.99,meteohub,2013-04-22 21:37:00,
2013-04-22 17:42:00,60.1,36.3,29.93,North,-999,-999.0,-999.0,41,-99.99,,,-99.99,meteohub,2013-04-22 21:42:00,
2013-04-22 17:47:00,59.9,36.9,29.93,North,-999,-999.0,-999.0,42,-99.99,,,-99.99,meteohub,2013-04-22 21:47:00,
2013-04-22 17:52:00,59.7,36.7,29.93,North,-999,-999.0,-999.0,42,-99.99,,,-99.99,meteohub,2013-04-22 21:52:00,
2013-04-22 17:57:00,59.7,37.2,29.93,North,-999,-999.0,-999.0,43,-99.99,,,-99.99,meteohub,2013-04-22 21:57:00,
2013-04-22 18:02:00,59.5,37.0,29.93,North,-999,-999.0,-999.0,43,-99.99,,,-99.99,meteohub,2013-04-22 22:02:00,
2013-04-22 18:07:00,59.4,37.4,29.93,North,-999,-999.0,-999.0,44,-99.99,,,-99.99,meteohub,2013-04-22 22:07:00,
2013-04-22 18:12:00,59.4,37.4,29.93,North,-999,-999.0,-999.0,44,-99.99,,,-99.99,meteohub,2013-04-22 22:12:00,
2013-04-22 18:17:00,59.2,37.9,29.93,North,-999,-999.0,-999.0,45,-99.99,,,-99.99,meteohub,2013-04-22 22:17:00,
2013-04-22 18:22:00,59.2,37.9,29.93,North,-999,-999.0,-999.0,45,-99.99,,,-99.99,meteohub,2013-04-22 22:22:00,
2013-04-22 18:27:00,59.0,37.8,29.93,North,-999,-999.0,-999.0,45,-99.99,,,-99.99,meteohub,2013-04-22 22:27:00,
2013-04-22 18:32:00,58.8,38.1,29.93,North,-999,-999.0,-999.0,46,-99.99,,,-99.99,meteohub,2013-04-22 22:32:00,
2013-04-22 18:37:00,58.8,38.1,29.93,North,-999,-999.0,-999.0,46,-99.99,,,-99.99,meteohub,2013-04-22 22:37:00,
2013-04-22 18:42:00,58.6,37.9,29.93,North,-999,-999.0,-999.0,46,-99.99,,,-99.99,meteohub,2013-04-22 22:42:00,
2013-04-22 18:47:00,58.5,38.3,29.93,North,-999,-999.0,-999.0,47,-99.99,,,-99.99,meteohub,2013-04-22 22:47:00,
2013-04-22 18:52:00,58.3,38.1,29.93,North,-999,-999.0,-999.0,47,-99.99,,,-99.99,meteohub,2013-04-22 22:52:00,
2013-04-22 18:57:00,58.3,38.1,29.93,North,-999,-999.0,-999.0,47,-99.99,,,-99.99,meteohub,2013-04-22 22:57:00,
2013-04-22 19:02:00,58.1,38.5,29.93,North,-999,-999.0,-999.0,48,-99.99,,,-99.99,meteohub,2013-04-22 23:02:00,
2013-04-22 19:07:00,58.1,38.5,29.93,North,-999,-999.0,-999.0,48,-99.99,,,-99.99,meteohub,2013-04-22 23:07:00,
2013-04-22 19:12:00,57.9,38.3,29.93,North,-999,-999.0,-999.0,48,-99.99,,,-99.99,meteohub,2013-04-22 23:12:00,
2013-04-22 19:17:00,57.7,37.8,29.93,North,-999,-999.0,-999.0,47,-99.99,,,-99.99,meteohub,2013-04-22 23:17:00,
2013-04-22 19:22:00,57.6,38.1,29.93,North,-999,-999.0,-999.0,48,-99.99,,,-99.99,meteohub,2013-04-22 23:22:00,
2013-04-22 19:27:00,57.6,38.1,29.93,North,-999,-999.0,-999.0,48,-99.99,,,-99.99,meteohub,2013-04-22 23:27:00,
2013-04-22 19:32:00,57.4,37.9,29.93,North,-999,-999.0,-999.0,48,-99.99,,,-99.99,meteohub,2013-04-22 23:32:00,
2013-04-22 19:37:00,57.2,37.8,29.93,North,-999,-999.0,-999.0,48,-99.99,,,-99.99,meteohub,2013-04-22 23:37:00,
2013-04-22 19:42:00,57.0,38.1,29.93,North,-999,-999.0,-999.0,49,-99.99,,,-99.99,meteohub,2013-04-22 23:42:00,
2013-04-22 19:47:00,56.8,38.5,29.93,North,-999,-999.0,-999.0,50,-99.99,,,-99.99,meteohub,2013-04-22 23:47:00,
2013-04-22 19:52:00,56.8,38.5,29.93,North,-999,-999.0,-999.0,50,-99.99,,,-99.99,meteohub,2013-04-22 23:52:00,
2013-04-22 19:57:00,56.7,38.3,29.93,North,-999,-999.0,-999.0,50,-99.99,,,-99.99,meteohub,2013-04-22 23:57:00,
2013-04-22 20:02:00,56.7,38.3,29.93,North,-999,-999.0,-999.0,50,-99.99,,,-99.99,meteohub,2013-04-23 00:02:00,
2013-04-22 20:07:00,56.5,38.7,29.93,North,-999,-999.0,-999.0,51,-99.99,,,-99.99,meteohub,2013-04-23 00:07:00,
2013-04-22 20:12:00,56.5,38.7,29.93,North,-999,-999.0,-999.0,51,-99.99,,,-99.99,meteohub,2013-04-23 00:12:00,
2013-04-22 20:17:00,56.3,38.5,29.93,North,-999,-999.0,-999.0,51,-99.99,,,-99.99,meteohub,2013-04-23 00:17:00,
2013-04-22 20:22:00,56.3,38.5,29.93,North,-999,-999.0,-999.0,51,-99.99,,,-99.99,meteohub,2013-04-23 00:22:00,
2013-04-22 20:27:00,56.1,38.3,29.93,North,-999,-999.0,-999.0,51,-99.99,,,-99.99,meteohub,2013-04-23 00:27:00,
2013-04-22 20:32:00,56.1,38.3,29.93,North,-999,-999.0,-999.0,51,-99.99,,,-99.99,meteohub,2013-04-23 00:32:00,
2013-04-22 20:37:00,55.9,38.1,29.93,North,-999,-999.0,-999.0,51,-99.99,,,-99.99,meteohub,2013-04-23 00:37:00,
2013-04-22 20:42:00,55.9,38.1,29.93,North,-999,-999.0,-999.0,51,-99.99,,,-99.99,meteohub,2013-04-23 00:42:00,
2013-04-22 20:47:00,55.9,38.7,29.93,North,-999,-999.0,-999.0,52,-99.99,,,-99.99,meteohub,2013-04-23 00:47:00,
2013-04-22 20:52:00,55.8,38.5,29.96,North,-999,-999.0,-999.0,52,-99.99,,,-99.99,meteohub,2013-04-23 00:52:00,
2013-04-22 20:57:00,55.6,38.3,29.96,North,-999,-999.0,-999.0,52,-99.99,,,-99.99,meteohub,2013-04-23 00:57:00,
2013-04-22 21:02:00,55.6,38.3,29.96,North,-999,-999.0,-999.0,52,-99.99,,,-99.99,meteohub,2013-04-23 01:02:00,
2013-04-22 21:07:00,55.4,38.1,29.93,North,-999,-999.0,-999.0,52,-99.99,,,-99.99,meteohub,2013-04-23 01:07:00,
2013-04-22 21:12:00,55.4,38.1,29.93,North,-999,-999.0,-999.0,52,-99.99,,,-99.99,meteohub,2013-04-23 01:12:00,
2013-04-22 21:17:00,55.2,38.5,29.93,North,-999,-999.0,-999.0,53,-99.99,,,-99.99,meteohub,2013-04-23 01:17:00,
2013-04-22 21:22:00,55.0,38.7,29.96,North,-999,-999.0,-999.0,54,-99.99,,,-99.99,meteohub,2013-04-23 01:22:00,
2013-04-22 21:27:00,54.5,39.2,29.96,North,-999,-999.0,-999.0,56,-99.99,,,-99.99,meteohub,2013-04-23 01:27:00,
2013-04-22 21:32:00,54.3,39.0,29.96,North,-999,-999.0,-999.0,56,-99.99,,,-99.99,meteohub,2013-04-23 01:32:00,
2013-04-22 21:37:00,54.0,38.1,29.96,North,-999,-999.0,-999.0,55,-99.99,,,-99.99,meteohub,2013-04-23 01:37:00,
2013-04-22 21:42:00,53.6,39.2,29.96,North,-999,-999.0,-999.0,58,-99.99,,,-99.99,meteohub,2013-04-23 01:42:00,
2013-04-22 21:47:00,53.1,39.6,29.96,North,-999,-999.0,-999.0,60,-99.99,,,-99.99,meteohub,2013-04-23 01:47:00,
2013-04-22 21:52:00,52.5,39.9,29.96,North,-999,-999.0,-999.0,62,-99.99,,,-99.99,meteohub,2013-04-23 01:52:00,
2013-04-22 21:57:00,52.2,39.9,29.96,North,-999,-999.0,-999.0,63,-99.99,,,-99.99,meteohub,2013-04-23 01:57:00,
2013-04-22 22:02:00,52.0,40.3,29.96,North,-999,-999.0,-999.0,64,-99.99,,,-99.99,meteohub,2013-04-23 02:02:00,
2013-04-22 22:07:00,51.6,40.6,29.96,North,-999,-999.0,-999.0,66,-99.99,,,-99.99,meteohub,2013-04-23 02:07:00,
2013-04-22 22:12:00,51.6,41.0,29.96,North,-999,-999.0,-999.0,67,-99.99,,,-99.99,meteohub,2013-04-23 02:12:00,
2013-04-22 22:17:00,51.6,41.0,29.96,North,-999,-999.0,-999.0,67,-99.99,,,-99.99,meteohub,2013-04-23 02:17:00,
2013-04-22 22:22:00,51.4,41.2,29.96,North,-999,-999.0,-999.0,68,-99.99,,,-99.99,meteohub,2013-04-23 02:22:00,
2013-04-22 22:27:00,51.3,41.0,29.96,North,-999,-999.0,-999.0,68,-99.99,,,-99.99,meteohub,2013-04-23 02:27:00,
2013-04-22 22:32:00,51.3,41.5,29.96,North,-999,-999.0,-999.0,69,-99.99,,,-99.99,meteohub,2013-04-23 02:32:00,
2013-04-22 22:37:00,51.3,41.5,29.96,North,-999,-999.0,-999.0,69,-99.99,,,-99.99,meteohub,2013-04-23 02:37:00,
2013-04-22 22:42:00,51.3,41.9,29.96,North,-999,-999.0,-999.0,70,-99.99,,,-99.99,meteohub,2013-04-23 02:42:00,
2013-04-22 22:47:00,51.3,42.3,29.96,North,-999,-999.0,-999.0,71,-99.99,,,-99.99,meteohub,2013-04-23 02:47:00,
2013-04-22 22:52:00,51.1,42.1,29.96,North,-999,-999.0,-999.0,71,-99.99,,,-99.99,meteohub,2013-04-23 02:52:00,
2013-04-22 22:57:00,51.1,42.1,29.96,North,-999,-999.0,-999.0,71,-99.99,,,-99.99,meteohub,2013-04-23 02:57:00,
2013-04-22 23:02:00,51.1,42.4,29.96,North,-999,-999.0,-999.0,72,-99.99,,,-99.99,meteohub,2013-04-23 03:02:00,
2013-04-22 23:07:00,51.1,42.4,29.96,North,-999,-999.0,-999.0,72,-99.99,,,-99.99,meteohub,2013-04-23 03:07:00,
2013-04-22 23:12:00,51.1,43.2,29.96,North,-999,-999.0,-999.0,74,-99.99,,,-99.99,meteohub,2013-04-23 03:12:00,
2013-04-22 23:17:00,50.9,42.6,29.96,North,-999,-999.0,-999.0,73,-99.99,,,-99.99,meteohub,2013-04-23 03:17:00,
2013-04-22 23:22:00,50.9,42.6,29.93,North,-999,-999.0,-999.0,73,-99.99,,,-99.99,meteohub,2013-04-23 03:22:00,
2013-04-22 23:27:00,50.7,42.8,29.93,North,-999,-999.0,-999.0,74,-99.99,,,-99.99,meteohub,2013-04-23 03:27:00,
2013-04-22 23:32:00,50.7,42.8,29.93,North,-999,-999.0,-999.0,74,-99.99,,,-99.99,meteohub,2013-04-23 03:32:00,
2013-04-22 23:37:00,50.7,42.4,29.93,North,-999,-999.0,-999.0,73,-99.99,,,-99.99,meteohub,2013-04-23 03:37:00,
2013-04-22 23:42:00,50.7,42.8,29.93,North,-999,-999.0,-999.0,74,-99.99,,,-99.99,meteohub,2013-04-23 03:42:00,
2013-04-22 23:47:00,50.7,42.4,29.93,North,-999,-999.0,-999.0,73,-99.99,,,-99.99,meteohub,2013-04-23 03:47:00,
2013-04-22 23:52:00,50.7,42.8,29.93,North,-999,-999.0,-999.0,74,-99.99,,,-99.99,meteohub,2013-04-23 03:52:00,
2013-04-22 23:57:00,50.5,42.6,29.93,North,-999,-999.0,-999.0,74,-99.99,,,-99.99,meteohub,2013-04-23 03:57:00,